Tracking 18987 objects as of 24-Feb-2018
HD Live streaming from Space Station
objects crossing your sky now

WESTFORD NEEDLES

Track WESTFORD NEEDLES now!
10-day predictions
WESTFORD NEEDLES is classified as:


NORAD ID: 18962
Int'l Code: 1963-014DN
Perigee: 2,788.1 km
Apogee: 4,394.9 km
Inclination: 87.0 °
Period: 164.9 minutes
Semi major axis: 9962 km
RCS: 0.1049 m2 (medium)
Launch date: May 9, 1963
Source: United States (US)
Launch site: AIR FORCE WESTERN TEST RANGE (AFWTR)
aabbcc
Your satellite tracking list
Your tracking list is empty




NASA's NSSDC Master Catalog

Two Line Element Set (TLE):
1 18962U 63014DN  18051.34153823  .00000509  00000-0  15735+0 0  9998
2 18962  86.9907 183.7173 0806441 358.4754  23.6276  8.73071425961364
Source of the keplerian elements: AFSPC